www.pogodaiklimat.ru

Погода и климат >> Архив погоды >> Россия >> Кемеровская область >> Тяжин


ПОГОДА в Тяжине

  • Прогноз погоды в Тяжине
  • Монитор погоды в Тяжине

АРХИВ ПОГОДЫ в Тяжине

Время (UTC), дата Ветер
(напр.,м/с)
 
Видим.   Явления Облачность Т
(С)
Тd
(С)
f
(%)
Тe
(С)
Тes
(С)
Комфортность P
(гПа)
Po
(гПа)
Тmin
(С)
Tmax
(С)
R
(мм)
R24
(мм)
S
(см)
09 13.04 З 7-12
{16}
20 км 8/4 600 м
[Sc diur, vesp Ci fib]
+16.4 -5.4 22 +15 +16 1007.4 981.3
12 13.04 З 7-12
{14}
20 км 8/3 600 м
[Sc diur, vesp Cc]
+15.1 -4.9 25 +14 +14 1006.4 980.3 +17.0
15 13.04 З 4
{12}
10 км 8/4 600 м
[Cb calv Cc]
+12.2 -1.7 38 +11 +11 1007.8 981.3
18 13.04 СЗ 4
{10}
20 км {ливн. осадки} 10/10 540 м
[Cb calv]
+4.2 +0.1 75 0 0 1010.3 983.1
21 13.04 СЗ 1 2000 м ливневой снег 10/10 300 м
[Cb calv]
-0.2 -1.8 89 -2 -2 1013.1 985.3
00 14.04 ЮЗ 2 10 км в посл. час ливневой снег 10/6 300 м
[Cb calv Ac trans Cc]
-0.7 -1.8 92 -5 -4 1012.9 985.2 -0.7 3 3
03 14.04 З 4 20 км 10/8 480 м
[Cb calv Ac und]
+1.2 -2.0 79 -4 -4 1014.4 986.7
06 14.04 СЗ 4 20 км слаб. ливневой снег 10/8 540 м
[Cb calv Ac trans Ci fib]
+3.0 -4.7 57 -1 -1 1015.5 988.0
09 14.04 З 4 20 км {ливн. осадки} 10/6 600 м
[Sc diur, vesp Ac trans Ci fib]
+4.9 -6.3 44 +2 +2 1015.4 988.0
12 14.04 СЗ 3 20 км {ливн. осадки} 10/6 600 м
[Sc diur, vesp Ac trans Cc]
+3.8 -8.1 41 +1 +1 1014.1 986.7 +5.9 0.0
15 14.04 С 1 20 км 10/0
[Cs]
+1.7 -7.6 50 +1 +1 1015.7 988.0
18 14.04 СЗ 2 10 км в посл. час ливневой снег 10 баллов +0.3 -8.4 52 -3 -3 1015.8 988.0
21 14.04 С 2 20 км 10/3 600 м
[Cb calv Cs]
-1.5 -8.9 57 -5 -5 1016.0 988.0
00 15.04 С 2 20 км 3/1 600 м
[Sc diur, vesp Ac lent]
-3.3 -9.0 65 -7 -7 1016.3 988.2 -3.6 0.0
03 15.04 СЗ 3 20 км 4/3 600 м
[Sc diur, vesp Ci fib]
-1.8 -11.1 49 -6 -3 1017.4 989.3
06 15.04 СВ 2 20 км 4/3 600 м
[Cu med, cong Ci fib]
+0.3 -12.7 37 -2 +4 1017.2 989.3
09 15.04 С 1 20 км 8/3 600 м
[Cu hum Cc]
+1.7 -14.4 29 +1 +4 1015.7 988.0
12 15.04 С 2 20 км 10/0
[Cc]
+1.0 -14.8 30 -1 -1 1012.7 985.1 +2.2
15 15.04 С 2 20 км 10/0
[Cc]
-2.2 -13.4 42 -5 -5 1012.0 984.0
18 15.04 СВ 3 20 км 10 баллов -3.5 -14.3 43 -8 -8 1010.8 982.7
21 15.04 СВ 2 20 км 10 баллов -5.9 -14.4 51 -10 -10 1009.6 981.3
00 16.04 С 2 20 км 4/0
[Cc]
-6.5 -14.3 54 -10 -10 1008.4 980.1 -7.4
03 16.04 СВ 2 20 км ясно -0.6 -14.2 35 -3 +3 1009.0 981.3
06 16.04 С 3
{11}
20 км ясно +2.2 -14.4 28 -1 +9 1010.2 982.7
09 16.04 СЗ 1 20 км ясно +4.4 -14.9 23 +4 +12 1010.0 982.7
12 16.04 З 1 20 км ясно +4.5 -15.8 21 +4 +5 1010.0 982.8 +5.5
15 16.04 Ю 1 10 км 3/0
[Cc]
-1.6 -12.8 42 -3 -3 1013.3 985.3
18 16.04 Ю 1 20 км ясно -4.3 -11.1 59 -6 -6 1013.5 985.3
21 16.04 Ю 2 20 км 6/0
[Ci fib]
-4.9 -12.1 57 -9 -9 1013.6 985.3
00 17.04 Ю 3 20 км 10/0
[Cs]
-1.6 -7.5 64 -6 -6 1012.6 984.7 -5.5
03 17.04 ЮЗ 6-11
{11}
20 км 10/0
[Cs]
+3.3 -10.3 36 -1 -1 1012.8 985.3
06 17.04 ЮЗ 7-13
{13}
20 км 10/1 600 м
[Cu hum Cs]
+5.6 -10.2 31 +1 +1 1011.2 984.0
09 17.04 ЮЗ 5
{13}
20 км 10/8 500 м
[Sc diur, vesp Cs]
+5.3 -8.2 37 +2 +2 1009.9 982.7
12 17.04 ЮЗ 4
{10}
20 км 8/4 600 м
[Sc Ac cast Cc]
+5.2 -9.1 35 +2 +2 1007.2 980.2 +6.1
15 17.04 Ю 3 20 км 10/3 600 м
[Sc diur, vesp Ac trans Cc]
+3.0 -7.5 46 -0 -0 1006.0 978.7
18 17.04 Ю 3 20 км 9/0
[Ac trans Cc]
+2.5 -7.7 47 -1 -1 1040.0 975.8
21 17.04 Ю 3 20 км 10 баллов +1.8 -6.3 55 -2 -2 997.9 970.7
00 18.04 ЮВ 2 20 км 10/8 540 м
[Cb calv Ci sp]
+2.4 -5.2 57 -0 -0 992.3 965.3 +1.6
03 18.04 ЮЗ 7-13
{16}
10 км слаб. ливневой снег 8/8 500 м
[Cb calv Ci fib]
+1.9 -1.4 79 -5 -4 991.0 964.0 +1.2
06 18.04 З 9-15
{20}
4000 м слаб. ливневой снег 10/6 300 м
[Cb calv Ci sp]
-2.9 -7.8 69 -11 -11 998.4 970.7
09 18.04 З 10-18
{18}
4000 м слаб. ливневой снег 10/6 300 м
[Cb calv Ci fib]
-2.8 -10.8 54 -11 -11 1006.6 978.7
12 18.04 З 7-12
{20}
4000 м слаб. ливневой снег 8/6 300 м
[Cb calv Ci fib]
-6.7 -12.7 62 -15 -15 1011.6 983.2 +5.0 0.8
15 18.04 З 7-13
{14}
10 км слаб. ливневой снег 4/4 300 м
[Cb calv]
-8.5 -15.7 56 -17 -17 1014.9 986.2
18 18.04 З 7-15
{15}
4000 м слаб. ливневой снег 10/8 360 м
[Cb calv Ci]
-8.1 -11.6 76 -17 -17 1017.1 988.4
21 18.04 З 8-13
{16}
4000 м слаб. ливневой снег {метель} 10/6 300 м
[Cb calv Cs]
-6.7 -9.8 79 -16 -16 1020.1 991.5
00 19.04 З 7-13
{17}
4000 м слаб. ливневой снег {метель} 6/6 300 м
[Cb calv]
-6.6 -11.2 70 -15 -15 1024.0 995.3 -9.0 0.7 1
03 19.04 З 7-13
{15}
20 км позёмок 3/3 600 м
[Sc diur, vesp]
-3.9 -14.9 42 -11 -10 1027.3 998.7
06 19.04 З 8-13
{15}
20 км {метель} 3/3 600 м
[Sc diur, vesp]
-0.8 -14.7 34 -8 -6 1028.3 1000.0
09 19.04 З 6-11
{13}
20 км 6/6 600 м
[Sc diur, vesp]
+1.8 -13.5 31 -3 -2 1026.7 998.7
12 19.04 ЮЗ 4
{12}
20 км 10/10 500 м
[Sc diur, vesp]
+0.7 -12.3 37 -4 -4 1024.2 996.2 +1.9 0.0
15 19.04 ЮЗ 1 20 км 2 балла -1.6 -10.7 50 -3 -3 1024.3 996.0
18 19.04 Ю 1 20 км 2 балла -5.1 -10.3 67 -7 -7 1021.9 993.3
21 19.04 Ю 1 20 км 2 балла -6.4 -10.8 71 -9 -9 1020.7 992.0
00 20.04 Ю 1 10 км 4/0
[Ac trans Ci fib]
-5.7 -10.6 68 -8 -7 1018.1 989.6 -8.6
03 20.04 ЮЗ 1 20 км 2 балла +1.4 -11.0 39 +1 +7 1017.1 989.3

 

Местоположение метеостанции Тяжин (Кемеровская область, Россия): широта 56.12 долгота 88.52 высота над уровнем моря 223 м.

В архиве по умолчанию представлена погода в Тяжине за последнюю неделю. Архивные данные за месяц целиком и за предыдущие месяцы, начиная с января 2011 года, Вы можете получить, выбрав интересующий диапазон дат из раскрывающегося списка и нажав кнопку "Ввод!".


*Определитесь, кто Вы:
робот инопланетянин человек

Внимание! Время в таблицах - всемирное. Для получения местного времени необходимо прибавить поправку, которая равна 7 ч.

Смотрите также архив погоды в соседних городах и на ближайших метеорологических станциях:

Погода в Тисуле (Кемеровская область, Россия) (43 км)
Погода в Мариинске (Кемеровская область, Россия) (52 км)
Погода в Боготоле (Красноярский край, Россия) (67 км)
Погода в Тюхтете (Красноярский край, Россия) (67 км)
Погода в Шарыпово (Красноярский край, Россия) (78 км)
Погода в Назарово (Красноярский край, Россия) (112 км)
Погода в Центральном Руднике (Кемеровская область, Россия) (116 км)
Погода в Ужуре (Красноярский край, Россия) (122 км)
Погода в Ачинске (Красноярский край, Россия) (125 км)
Погода в Яе (Кемеровская область, Россия) (127 км)

Пояснения к столбцам:

Ветер - указаны скорость ветра в м/с - средняя за 10 мин, порывы в срок и между сроками (в фигурных скобках) и направление, откуда дует ветер: С - северный, СВ - северо-восточный, В - восточный, ЮВ - юго-восточный, Ю - южный, ЮЗ - юго-западный, З - западный, СЗ - северо-западный.
Видимость - горизонтальная дальность видимости в метрах или километрах. При видимости от 1 до 10 км при отсутствии осадков обычно наблюдается дымка, при ухудшении видимости до 1 км и менее - туман. В сухую погоду видимость может ухудшаться дымом, пылью или мглою.
Явления - указаны атмосферные явления, наблюдавшиеся в срок или в последний час перед сроком; фигурными скобками обозначены явления, наблюдавшиеся между сроками (за 1-3 часа до срока); квадратными скобками обозначены град или гололедные отложения с указанием их диаметра в мм.
Облачность - указаны через наклонную черту общая и нижняя облачность в баллах и высота нижней границы облаков в метрах; квадратными скобками обозначены формы облаков: Ci - перистые, Cs - перисто-слоистые, Cc - перисто-кучевые, Ac - высококучевые, As - высокослоистые, Sc - слоисто-кучевые, Ns - слоисто-дождевые, Cu - кучевые, Cb - кучево-дождевые. Подробнее классификацию облаков см. в Атласе облаков (PDF).
T - Температура воздуха - температура, измеренная на высоте 2 м над землей.
Td - Температура точки росы - температура, при понижении до которой содержащийся в воздухе водяной пар достигнет насыщения.
f - Относительная влажность воздуха - влажноcть воздуха, измеренная на высоте 2 м над землей.
Te - Эффективная температура - температура, которую ощущает одетый по сезону человек в тени. Характеристика душности погоды. При расчете учитывается влияние влажности воздуха и скорости ветра на теплоощущения человека.
Tes - Эффективная температура на солнце - температура, которую ощущает человек, с поправкой на солнечный нагрев. Характеристика знойности погоды. Зависит от высоты солнца над горизонтом, облачности и скорости ветра. Ночью, в пасмурную погоду, а также при ветре 12 м/с и более поправка равна нулю.
P - Атмосферное давление - приведенное к уровню моря атмосферное давление.
Po - Атмосферное давление - измеренное на уровне метеостанции атмосферное давление.
Tmin - Минимальная температура - минимум температуры воздуха на высоте 2 м над землей.
Tmax - Максимальная температура - максимум температуры воздуха на высоте 2 м над землей.
R - Количество осадков - Количество выпавших осадков за период времени, мм. При наведении курсора мыши на число - период времени, за который выпало указанное количество осадков.
R24 - Количество осадков - Количество выпавших осадков за 24 часа, мм.
S - Снежный покров - Высота снежного покрова, см. При наведении курсора мыши на число - состояние снежного покрова и степень покрытия местности в баллах.